Regional Weather Roundup
Issued by NWS Newport/Morehead, NC

Current Version | Previous Version | Graphics & Text | Print | Product List | Glossary Off
Versions: 1 2 3 4 5 6 7 8 9 10 11 12 13 14 15 16 17 18 19 20 21 22 23 24 25 26 27 28 29 30 31 32 33 34 35 36 37 38 39 40 41 42 43 44 45 46 47 48 49 50

891
ASUS42 KMHX 181813
RWRMHX
WEATHER ROUNDUP FOR EASTERN NORTH CAROLINA
NATIONAL WEATHER SERVICE NEWPORT/MOREHEAD CITY NC
100 PM EST SAT NOV 18 2017

NOTE: "FAIR" INDICATES FEW OR NO CLOUDS BELOW 12,000 FEET
WITH NO SIGNIFICANT WEATHER AND/OR OBSTRUCTIONS TO VISIBILITY

NCZ015>017-031-032-045>047-102-103-181900-
NORTH COAST

CITY           SKY/WX    TMP DP  RH WIND       PRES   REMARKS
EDENTON        CLOUDY    64  50  59 SW13      29.91F
ELIZABETH CITY MOSUNNY   64  49  57 S14G22    29.89F
KITTY HAWK     CLEAR     62  49  61 CALM      29.91F
MANTEO         SUNNY     62  49  62 S14       29.93F

$$

NCZ045>047-081-094-103-104-181900-
CENTRAL COAST

CITY           SKY/WX    TMP DP  RH WIND       PRES   REMARKS
FRISCO         SUNNY     66  57  72 SW12      29.96F

$$

NCZ095-097-098-100-101-181900-
SOUTHERN COAST

CITY           SKY/WX    TMP DP  RH WIND       PRES   REMARKS
BEAUFORT       PTSUNNY   65  56  72 S14       29.95F
CEDAR ISLAND   NOT AVBL
JACKSONVILLE   SUNNY     69  49  48 S12       29.94F
PINEY ISLAND   NOT AVBL
WILMINGTON     MOSUNNY   70  46  42 S13       29.95F


$$

NCZ011>013-027>030-043-044-078>080-089-090>093-098-181900-
COASTAL PLAIN

CITY           SKY/WX    TMP DP  RH WIND       PRES   REMARKS
AHOSKIE        SUNNY     61  45  55 S8        29.87F
CLINTON        SUNNY     69  52  54 SW12      29.92F
ELIZABETHTOWN  NOT AVBL
GOLDSBORO      SUNNY     68  48  48 SW16G25   29.88F
GREENVILLE     SUNNY     68  46  45 SW12G20   29.92F
HAVELOCK       SUNNY     67  53  61 S14       29.95F
KENANSVILLE    MOSUNNY   68  50  52 S6        29.92F
KINSTON        SUNNY     70  48  46 SW17G25   29.91F
NEW BERN       MOSUNNY   68  52  56 SW12G23   29.93F
RICHLANDS      PTSUNNY   69  52  54 S13       29.93F
ROCKY MOUNT    MOSUNNY   66  48  52 SW17G26   29.88F
WASHINGTON     SUNNY     67  49  51 SW10G18   29.91F
WHITEVILLE     MOSUNNY   70  51  51 S14G23    29.94F

$$

AMZ130-135-150-152-154-156-158-170-250-252-270-ANZ085-086-088-633-658-670-181900-
MARINE OBSERVATIONS

STATION/POSITION TIME  TEMP    WIND        PRES    WAVE   SWELL
                       AIR SEA DIR/SP/G            HT/PER HT/PER
                 (UTC) (F)     (DEG/KT/KT) (MB)    (FT/S) (FT/S)
CHESAPEAKE LIGHT NOT AVBL
64 E VA BEACH    1750   60 61  210/ 19/ 23 1013.3    3/ 4   2/11
DUCK             NOT AVBL
2 E DUCK         1800      59                N/A     2/11   2/11
OREGON INLET     NOT AVBL
13E OREGON INLT  1748      61                N/A     2/ 9   2/11
HATTERAS CG      NOT AVBL
DIAMOND BUOY     1800   63 65  240/ 10/ 12 1015.0
CAPE LOOKOUT     1800   64     180/  9/ 11 1014.9
BEAUFORT LAB     NOT AVBL
30 SE NEW RVR IN 1708   66 70  180/  6/  8 1016.0
30 SE NEW RVR IN 1800      70                N/A     3/ 8   2/11
27 SE WRIGHTSVLE 1708   65 67  200/  8/ 10 1015.6
5 SE WRIGHTSVLE  1708   65 64  200/  8/ 12 1016.1
225 S CAPE HAT   1750   70 77  190/  4/  8 1016.9    6/10   5/10
41 SE CHARLESTON 1800   74 76  190/ 17/ 23 1013.8

$$




USA.gov is the U.S. government's official web portal to all federal, state and local government web resources and services.